Regional Weather Roundup
Issued by NWS

Home | Current Version | Previous Version | Text Only | Print | Product List | Glossary Off
Versions: 1 2 3 4 5 6 7 8 9 10 11 12 13 14 15 16 17 18 19 20 21 22 23 24 25 26 27 28 29 30 31 32 33 34 35 36 37 38 39 40 41 42 43 44 45 46 47 48 49 50

000
ASUS45 KABQ 241301
RWRNM
WEATHER ROUNDUP FOR NEW MEXICO
NATIONAL WEATHER SERVICE ALBUQUERQUE NM
700 AM MDT FRI OCT 24 2014

NOTE: "FAIR" MEANS FEW OR NO CLOUDS BELOW 12,000 FEET AGL WITH NO
       SIGNIFICANT WEATHER OR OBSTRUCTIONS TO VISION.

      THIS PRODUCT IS RELEASED AS TWO VERSIONS.  ONE VERSION NEAR
      THE TOP OF THE HOUR CONTAINING PRELIMINARY DATA FROM ALBUQUERQUE
      AND OTHER STATIONS.  A FINAL VERSION WITH ADDITIONAL DATA IS
      ISSUED ABOUT 10 MINUTES AFTER THE HOUR.

NMZ501-503-504-510>518-241400-
NORTHWEST PLATEAU/NORTHCENTRAL MOUNTAINS

CITY           SKY/WX    TMP DP  RH WIND       PRES   REMARKS
FARMINGTON     CLEAR     42  34  73 E6        30.31R
LOS ALAMOS     CLEAR     50  29  44 CALM      30.37R
SANTA FE       CLEAR     45  30  55 N13       30.31R
TAOS           CLEAR     30  25  80 N6        30.38S WCI  24
ANGEL FIRE     FAIR      24  21  87 SE3       30.45S

$$
NMZ402-403-502-505>509-241400-
WESTCENTRAL MOUNTAINS/SOUTHWEST MOUNTAINS

CITY           SKY/WX    TMP DP  RH WIND       PRES   REMARKS
GALLUP         PTCLDY    33  30  88 CALM      30.37R
GRANTS         CLEAR     28  25  86 NW5       30.40R WCI  23
SILVER CITY    CLEAR     48  43  81 N10       30.30R

$$
NMZ407-409-411-412-241400-
SOUTHERN DESERTS

CITY           SKY/WX    TMP DP  RH WIND       PRES   REMARKS
LORDSBURG      FAIR      45  43  93 MISG      30.24R
DEMING         CLEAR     46  44  93 CALM      30.24R
LAS CRUCES     CLEAR     52  47  85 CALM      30.25R
HOLLOMAN AFB   CLEAR     53  45  73 CALM      30.22R
T OR C         CLEAR     53  44  71 NW8       30.26R

$$
NMZ519>523-241400-
CENTRAL VALLEYS/CENTRAL HIGHLANDS

CITY           SKY/WX    TMP DP  RH WIND       PRES   REMARKS
ALBUQUERQUE    CLEAR     49  36  61 NE5       30.31R
DOUBLE EAGLE   CLEAR     41  30  65 W5        30.32R
MORIARTY ARPT  FAIR      31  28  90 N6        30.34R WCI  25
CLINES CORNERS CLEAR     46  30  53 W15       30.32R
BELEN          NOT AVBL
SOCORRO        FAIR      45  41  85 NW5       30.28R

$$
NMZ524>526-539-540-241400-
SOUTHCENTRAL MOUNTAINS

CITY           SKY/WX    TMP DP  RH WIND       PRES   REMARKS
RUIDOSO        CLEAR     48  36  61 W8        30.36

$$
NMZ527>531-241400-
NORTHEAST HIGHLANDS/NORTHEAST PLAINS

CITY           SKY/WX    TMP DP  RH WIND       PRES   REMARKS
LAS VEGAS      PTCLDY    39  26  59 NE6       30.31R WCI  35
RATON          PTCLDY    38  34  85 NE7       30.26S WCI  33
CLAYTON        CLEAR     55  38  52 W9        30.17S

$$
NMZ532>537-241400-
EASTCENTRAL PLAINS

CITY           SKY/WX    TMP DP  RH WIND       PRES   REMARKS
TUCUMCARI      CLEAR     45  40  82 SW6       30.15S
CANNON AFB     CLEAR     53  51  92 W7        30.18R
CLOVIS AIRPORT CLEAR     48  46  93 W7        30.20R

$$
NMZ028-029-538-241400-
SOUTHEAST PLAINS

CITY           SKY/WX    TMP DP  RH WIND       PRES   REMARKS
ROSWELL        CLEAR     50  45  83 CALM      30.18R
CARLSBAD       CLEAR     54  51  90 CALM      30.16R
HOBBS          FOG       50  50 100 CALM      30.19R VSB 0


$$



USA.gov is the U.S. government's official web portal to all federal, state and local government web resources and services.